Freeport, IL

5:41 AM CST on December 11, 2017 (GMT -0600)
Albertus

Weather History for KFEP - February, 2013

Change the Weather History Date:

Sunday, February 24, 2013

  Actual Average Record
Temperature  
Mean Temperature 20 °F -  
Max Temperature 33 °F 37 °F 64 °F (2002)
Min Temperature 7 °F 20 °F -10 °F (1993)
Degree Days  
Heating Degree Days 45    
Moisture  
Dew Point 15 °F    
Average Humidity 80    
Maximum Humidity 89    
Minimum Humidity 65    
Precipitation  
Precipitation 0.00 in - - ()
Sea Level Pressure  
Sea Level Pressure 30.08 in    
Wind  
Wind Speed 2 mph (SW)    
Max Wind Speed 6 mph    
Max Gust Speed -    
Visibility 10 miles    
Events      
Averages and records for this station are not official NWS values.
T = Trace of Precipitation, MM = Missing Value Source: NWS Daily Summary

Daily Weather History Graph

Daily Weather History Graph

Search for Another Location

Airport or City:

Trip Planner

Search our weather history database for the weather conditions in past years. The results will help you decide how hot, cold, wet, or windy it might be!

Date:

Astronomy

Feb. 24, 2013 Rise Set
Actual Time 6:41 AM CST 5:42 PM CST
Civil Twilight 6:12 AM CST 6:10 PM CST
Nautical Twilight 5:40 AM CST 6:43 PM CST
Astronomical Twilight 5:07 AM CST 7:15 PM CST
Moon 4:53 PM CST (2/24) 5:38 AM CST (2/24)
Length of Visible Light 11h 58m
Length of Day
11h 01m
Waxing Gibbous, 99% of the Moon is Illuminated
Feb 24
Waxing Gibbous
Feb 25
Full
Mar 4
Last Quarter
Mar 11
New
Mar 19
First Quarter

Hourly Weather History & Observations

Time (CST) Temp. Windchill Dew Point Humidity Pressure Visibility Wind Dir Wind Speed Gust Speed Precip Events Conditions
12:15 AM 18.7 °F 11.9 °F 14.5 °F 84% 29.98 in 10.0 mi SW 4.6 mph - N/A   Clear
12:35 AM 18.5 °F 11.7 °F 14.7 °F 85% 29.97 in 10.0 mi SW 4.6 mph - N/A   Clear
12:55 AM 18.5 °F 13.3 °F 14.9 °F 86% 29.98 in 10.0 mi WSW 3.5 mph - N/A   Clear
1:15 AM 16.9 °F 9.8 °F 13.1 °F 85% 29.99 in 10.0 mi SW 4.6 mph - N/A   Clear
1:35 AM 16.3 °F 9.2 °F 12.9 °F 86% 29.99 in 10.0 mi WSW 4.6 mph - N/A   Clear
1:55 AM 16.2 °F 9.0 °F 12.7 °F 86% 29.99 in 10.0 mi SW 4.6 mph - N/A   Clear
2:15 AM 14.9 °F 6.1 °F 11.5 °F 86% 29.99 in 10.0 mi SW 5.8 mph - N/A   Clear
2:35 AM 15.1 °F 7.7 °F 11.8 °F 87% 29.99 in 10.0 mi SW 4.6 mph - N/A   Clear
2:55 AM 15.4 °F 9.8 °F 12.2 °F 87% 29.99 in 10.0 mi SW 3.5 mph - N/A   Clear
3:15 AM 13.6 °F - 10.6 °F 88% 29.99 in 10.0 mi Calm Calm - N/A   Clear
3:35 AM 11.1 °F - 8.2 °F 88% 29.99 in 10.0 mi Calm Calm - N/A   Clear
3:55 AM 12.6 °F 4.8 °F 9.7 °F 88% 30.00 in 7.0 mi SSW 4.6 mph - N/A   Clear
4:15 AM 7.9 °F 1.2 °F 4.8 °F 87% 30.01 in 10.0 mi SW 3.5 mph - N/A   Clear
4:35 AM 11.1 °F - 8.4 °F 89% 30.01 in 10.0 mi Calm Calm - N/A   Clear
4:55 AM 11.1 °F - 8.2 °F 88% 30.01 in 7.0 mi Calm Calm - N/A   Clear
5:15 AM 8.6 °F 0.1 °F 5.2 °F 86% 30.02 in 7.0 mi SSW 4.6 mph - N/A   Clear
5:35 AM 10.4 °F 4.0 °F 7.5 °F 88% 30.04 in 10.0 mi SSW 3.5 mph - N/A   Clear
5:55 AM 8.8 °F 2.2 °F 5.5 °F 87% 30.05 in 7.0 mi SW 3.5 mph - N/A   Clear
6:15 AM 11.1 °F - 8.2 °F 88% 30.05 in 10.0 mi Calm Calm - N/A   Clear
6:35 AM 9.5 °F - 6.3 °F 87% 30.05 in 10.0 mi Calm Calm - N/A   Clear
6:55 AM 12.6 °F - 9.9 °F 89% 30.05 in 7.0 mi Calm Calm - N/A   Clear
7:15 AM 7.2 °F - 3.7 °F 86% 30.06 in 10.0 mi Calm Calm - N/A   Clear
7:35 AM 7.2 °F -1.5 °F 3.7 °F 86% 30.07 in 7.0 mi SSW 4.6 mph - N/A   Clear
7:55 AM 12.9 °F 6.9 °F 10.2 °F 89% 30.08 in 7.0 mi SW 3.5 mph - N/A   Clear
8:15 AM 14.9 °F 9.2 °F 11.8 °F 88% 30.09 in 10.0 mi SW 3.5 mph - N/A   Clear
8:35 AM 19.4 °F - 15.8 °F 86% 30.09 in 10.0 mi Calm Calm - N/A   Clear
8:55 AM 18.9 °F - 14.5 °F 83% 30.10 in 10.0 mi Calm Calm - N/A   Clear
9:15 AM 18.5 °F - 14.5 °F 85% 30.11 in 10.0 mi Calm Calm - N/A   Clear
9:35 AM 21.0 °F - 15.8 °F 80% 30.11 in 10.0 mi Calm Calm - N/A   Clear
9:55 AM 23.5 °F - 16.3 °F 74% 30.11 in 10.0 mi Calm Calm - N/A   Clear
10:15 AM 23.7 °F - 16.2 °F 73% 30.12 in 10.0 mi Calm Calm - N/A   Clear
10:35 AM 24.3 °F - 16.9 °F 73% 30.11 in 10.0 mi Calm Calm - N/A   Clear
10:55 AM 24.8 °F - 17.1 °F 72% 30.12 in 10.0 mi Calm Calm - N/A   Clear
11:15 AM 24.8 °F - 16.7 °F 71% 30.12 in 10.0 mi Calm Calm - N/A   Clear
11:35 AM 27.0 °F - 17.8 °F 68% 30.12 in 10.0 mi Calm Calm - N/A   Clear
11:55 AM 26.4 °F - 18.5 °F 72% 30.12 in 10.0 mi Calm Calm - N/A   Clear
12:15 PM 27.3 °F - 19.8 °F 73% 30.11 in 10.0 mi Calm Calm - N/A   Clear
12:35 PM 28.8 °F - 20.3 °F 71% 30.11 in 10.0 mi Calm Calm - N/A   Clear
12:55 PM 28.8 °F - 20.3 °F 71% 30.12 in 10.0 mi Calm Calm - N/A   Clear
1:15 PM 28.8 °F - 19.8 °F 69% 30.12 in 10.0 mi Calm Calm - N/A   Clear
1:35 PM 29.3 °F - 19.8 °F 68% 30.11 in 10.0 mi Calm Calm - N/A   Clear
1:55 PM 31.5 °F - 21.0 °F 65% 30.11 in 10.0 mi Calm Calm - N/A   Clear
2:15 PM 31.5 °F - 21.6 °F 67% 30.11 in 10.0 mi Calm Calm - N/A   Clear
2:35 PM 31.5 °F - 21.4 °F 66% 30.10 in 10.0 mi Calm Calm - N/A   Clear
2:55 PM 31.5 °F - 21.9 °F 68% 30.11 in 10.0 mi Calm Calm - N/A   Clear
3:15 PM 33.8 °F - 23.4 °F 66% 30.11 in 10.0 mi Calm Calm - N/A   Clear
3:35 PM 31.5 °F - 21.4 °F 66% 30.11 in 10.0 mi Calm Calm - N/A   Clear
3:55 PM 31.5 °F - 21.7 °F 67% 30.11 in 10.0 mi Calm Calm - N/A   Clear
4:15 PM 31.5 °F - 21.9 °F 68% 30.11 in 10.0 mi Calm Calm - N/A   Clear
4:35 PM 31.5 °F - 22.3 °F 69% 30.11 in 10.0 mi Calm Calm - N/A   Clear
4:55 PM 31.5 °F - 22.1 °F 68% 30.10 in 10.0 mi Calm Calm - N/A   Clear
5:15 PM 31.1 °F - 22.3 °F 70% 30.10 in 10.0 mi Calm Calm - N/A   Clear
5:35 PM 28.6 °F - 20.7 °F 72% 30.11 in 10.0 mi Calm Calm - N/A   Clear
5:55 PM 26.2 °F - 20.1 °F 78% 30.11 in 10.0 mi Calm Calm - N/A   Clear
6:15 PM 24.1 °F - 19.0 °F 81% 30.11 in 10.0 mi Calm Calm - N/A   Clear
6:35 PM 23.7 °F 19.3 °F 18.9 °F 82% 30.12 in 10.0 mi East 3.5 mph - N/A   Clear
6:55 PM 21.4 °F - 17.2 °F 84% 30.12 in 10.0 mi Calm Calm - N/A   Clear
7:15 PM 22.8 °F - 18.3 °F 83% 30.12 in 10.0 mi Calm Calm - N/A   Clear
7:35 PM 21.2 °F - 17.1 °F 84% 30.12 in 10.0 mi Calm Calm - N/A   Clear
7:55 PM 21.2 °F - 16.7 °F 83% 30.13 in 10.0 mi Calm Calm - N/A   Clear
8:15 PM 20.8 °F - 16.2 °F 82% 30.14 in 10.0 mi Calm Calm - N/A   Clear
8:35 PM 19.8 °F - 15.6 °F 84% 30.14 in 10.0 mi Calm Calm - N/A   Clear
8:55 PM 18.5 °F - 14.9 °F 86% 30.14 in 10.0 mi Calm Calm - N/A   Clear
9:15 PM 20.7 °F - 16.7 °F 85% 30.13 in 10.0 mi Calm Calm - N/A   Clear
9:35 PM 18.7 °F - 14.9 °F 85% 30.13 in 10.0 mi Calm Calm - N/A   Clear
9:55 PM 18.7 °F - 15.3 °F 87% 30.13 in 10.0 mi Calm Calm - N/A   Clear
10:15 PM 19.2 °F - 16.0 °F 87% 30.13 in 10.0 mi Calm Calm - N/A   Clear
10:35 PM 18.7 °F - 15.6 °F 88% 30.13 in 10.0 mi Calm Calm - N/A   Clear
10:55 PM 18.5 °F - 15.6 °F 89% 30.13 in 10.0 mi Calm Calm - N/A   Clear
11:15 PM 18.5 °F - 14.9 °F 86% 30.13 in 10.0 mi Calm Calm - N/A   Clear
11:35 PM 18.5 °F - 15.6 °F 89% 30.14 in 7.0 mi Calm Calm - N/A   Clear
11:55 PM 16.2 °F - 13.1 °F 88% 30.14 in 7.0 mi Calm Calm - N/A   Clear